Weather in Yevsuh

Ukraine / Luhansk Region     49°12′05″N   39°18′43″E
temp.,
°C
wind,
m/s
gust,
m/s
humid.,
%
clouds,
%
prec.,
mm/h
press.,
hPa
HPBL,
m
15 august, mon
mon1500:00+25ene8182799 0.0 1012549
03:00+26ene8172971 0.0 1011532
06:00+24e715336 0.0 1012452
09:00+30e8102325 0.0 1011692
12:00+36e811175 0.0 10112958
15:00+38ese9111382 0.0 10094086
18:00+34ene8131868 0.0 10081721
21:00+32e916205 0.0 1009758
16 august, tue
tue1600:00+31ese9172386 0.0 10111257
03:00+27e91728100 0.1 1011827
06:00+26ese81727100 0.0 1012631
09:00+28e91321100 0.0 1012780
12:00+32e91218100 0.0 10111669
15:00+34e81317100 0.0 10093089
18:00+34ese6101751 0.0 10091337
21:00+29sse3831100 0.0 1010222
17 august, wed
wed1700:00+26e254097 0.0 101099
03:00+24e353999 0.1 100979
06:00+21ese3115648 0.4 1009193
09:00+28se6937100 0.6 1009600
12:00+33sse44265 0.2 10081648
15:00+36sse232330 0.3 10073027
18:00+35ssw442294 0.0 10072541
21:00+28wsw3334100 0.1 100829
18 august, thu
thu1800:00+25n3542100 0.0 100777
03:00+24nne2244100 0.0 100715
06:00+23ene3537100 0.0 100892
09:00+29ne2228100 0.0 1008477
12:00+33n3323100 0.0 10071177
15:00+35nnw3321100 0.0 10073119
18:00+34nnw4322100 0.1 10061149
21:00+23nnw496299 1.2 1008164
19 august, fri
fri1900:00+21nne256737 0.2 100771
03:00+20nw22725 0.2 100813
06:00+20se11722 0.0 100813
09:00+28se344121 0.0 1009681
12:00+33se56300 0.0 10082400
15:00+35ese662576 0.0 10083562
18:00+32e8113349 0.4 1008680
21:00+23n1164100 7.0 101118